Tracking 35030 objects as of 9-Aug-2026
HD Live streaming from Space Station
objects crossing your sky now

CSTP-4.2

Track CSTP-4.2 now!
10-day predictions
CSTP-4.2 is classified as:


NORAD ID: 64883
Int'l Code: 2025-155H
Launch date: July 25, 2025
Source: (TBD)
Launch site: VOSTOCHNY COSMODROME (VOSTO)

Uplink (MHz):
Downlink (MHz): 437.240
Beacon (MHz):
Mode: LoRa
Call sign:
Status: Active

Your satellite tracking list
Your tracking list is empty




NASA's NSSDC Master Catalog

Two Line Element Set (TLE):
1 64883U 25155H   26221.13896124  .00005878  00000-0  20273-3 0  9999
2 64883  97.4610 189.8509 0006820   4.1861 355.9435 15.30355759 88850
Source of the keplerian elements: AFSPC